Regional Weather Roundup
Issued by NWS

Home | Current Version | Previous Version | Graphics & Text | Print | Product List | Glossary On
Versions: 1 2 3 4 5 6 7 8 9 10 11 12 13 14 15 16 17 18 19 20 21 22 23 24 25 26 27 28 29 30 31 32 33 34 35 36 37 38 39 40 41 42 43 44 45 46 47 48 49 50
000
ASUS43 KLMK 042110
RWRKY
KENTUCKY REGIONAL WEATHER ROUNDUP
NATIONAL WEATHER SERVICE LOUISVILLE KY
500 PM EDT WED MAY 04 2016

NOTE "FAIR" INDICATES FEW OR NO CLOUDS BELOW 12,000 FEET
WITH NO SIGNIFICANT WEATHER AND/OR OBSTRUCTIONS TO VISIBILITY.

KYZ001>023-026-027-061>063-070>075-042200-
WESTERN AND SOUTH CENTRAL KENTUCKY

CITY           SKY/WX    TMP DP  RH WIND       PRES   REMARKS
PADUCAH        MOSUNNY   69  41  36 N23G30    29.76S
HENDERSON      MOSUNNY   64  41  42 NW14G22   29.74R
OWENSBORO      MOSUNNY   66  43  43 NW20      29.73R
HOPKINSVILLE   MOSUNNY   59  52  77 W8        29.73R
BOWLING GREEN  MOSUNNY   61  53  75 W9        29.71S
GLASGOW        CLOUDY    49  44  83 CALM      29.71R
$$

KYZ024-025-028>034-038-045-046-053-042200-
NORTH CENTRAL KENTUCKY

CITY           SKY/WX    TMP DP  RH WIND       PRES   REMARKS
LOUISVILLE/SDF CLOUDY    58  43  57 NW6       29.70S
LOUISVILLE/LOU CLOUDY    57  46  66 NW6       29.71S
FORT KNOX      PTSUNNY   54  45  71 N8        29.70R
$$

KYZ035>037-039>044-047>052-055>060-089>105-042200-
NORTHEAST KENTUCKY

CITY           SKY/WX    TMP DP  RH WIND       PRES   REMARKS
LEXINGTON      CLOUDY    57  50  77 NW10G20   29.68R
COVINGTON      PTSUNNY   56  49  77 W10       29.66S
FRANKFORT      PTSUNNY   53  45  74 W7        29.68R
$$

KYZ054-064>069-076>088-106>120-042200-
SOUTHEAST KENTUCKY

CITY           SKY/WX    TMP DP  RH WIND       PRES   REMARKS
JACKSON        LGT RAIN  51  49  92 VRB5      29.71R FOG
LONDON         CLOUDY    55  49  80 S9        29.70F
SOMERSET       PTSUNNY   55  46  71 SW7       29.70F
MIDDLESBORO    LGT RAIN  54  50  88 NW12G20   29.75R
MONTICELLO     NOT AVBL
$$




USA.gov is the U.S. government's official web portal to all federal, state and local government web resources and services.